Location: Bakhuizen
(52.8696°N, 5.4575°E)
Time: 19:27:06
(UTC+00:00)

JB-3 - Pass Details

Date: 11 May 2021
Orbit: 525 x 589 km, 97.3° (Epoch: 20 June)

Event Time Altitude Azimuth Distance (km) Brightness Sun altitude
Rises 21:12:23 0° 13° (NNE) 2,728 8.5 -12.6°
Reaches altitude 10° 21:14:33 10° 13° (NNE) 1,820 7.6 -12.8°
Maximum altitude 21:18:29 89° 285° (WNW) 544 4.2 -13.2°
Enters shadow 21:22:04 12° 195° (SSW) 1,670 6.4 -13.5°
